Location: ?????????
(44.2517°N, 135.2292°E)
Time: 22:03:08
(UTC+00:00)

ARIANE 6 FM1 Upper Stage - Visible Passes

Search period start: 16 January 2026 00:00
Search period end: 26 January 2026 00:00
Orbit: 522 x 610 km, 62.0° (Epoch: 16 January)

Date Brightness Start Highest point End Pass type
(mag) Time Alt. Az. Time Alt. Az. Time Alt. Az.
16 Jan 5.0 19:39:36 17° SE 19:39:36 17° SE 19:40:36 10° SE visible
17 Jan 5.4 19:40:36 11° SSE 19:40:36 11° SSE 19:40:45 10° SSE visible
20 Jan 4.4 09:34:39 10° SSE 09:36:27 18° SE 09:36:27 18° SE visible
21 Jan 3.6 09:34:12 10° S 09:37:27 30° SE 09:37:27 30° SE visible
21 Jan 5.7 11:13:07 10° WSW 11:13:32 12° WSW 11:13:32 12° WSW visible
22 Jan 2.9 09:34:00 10° SSW 09:37:55 45° ESE 09:38:23 43° ESE visible
22 Jan 5.7 11:13:45 10° W 11:14:27 13° W 11:14:27 13° W visible
23 Jan 2.5 09:33:59 10° SSW 09:38:03 69° SE 09:39:13 43° ENE visible
23 Jan 5.7 11:14:32 10° W 11:15:17 13° WNW 11:15:17 13° WNW visible
24 Jan 2.6 09:34:08 10° SW 09:38:13 81° NW 09:39:58 33° NNE visible
24 Jan 5.7 11:15:28 10° WNW 11:16:01 12° WNW 11:16:01 12° WNW visible
25 Jan 3.1 09:34:25 10° SW 09:38:25 55° NW 09:40:37 24° NNE visible
25 Jan 5.8 11:16:38 10° NW 11:16:40 10° NW 11:16:40 10° NW visible
